EW9543 Weather Reports


Display with metric or nautical units.
time (UTC)temp
F
wind
direction
speed
MPH
gust
MPH
rain 1hr
in
rain 24hr
in
rain mn
in
humidity
%
barometer
mb
20260506123036 53 259 0.0 0.0 0.00 0.00 0.00 84 1018.3
20260506121536 53 259 0.0 0.0 0.00 0.00 0.00 84 1018.2
20260506120037 53 259 0.0 0.0 0.00 0.00 0.00 84 1018.1
20260506114529 53 259 0.0 0.0 0.00 0.00 0.00 84 1018.1
20260506113027 53 259 0.0 0.0 0.00 0.00 0.00 85 1017.9
20260506111526 53 259 0.0 0.0 0.00 0.00 0.00 85 1017.8
20260506110023 53 259 0.0 0.0 0.00 0.00 0.00 85 1017.8
20260506104523 53 259 0.0 0.0 0.00 0.00 0.00 85 1017.6
20260506103022 53 259 0.0 0.0 0.00 0.00 0.00 85 1017.6
20260506101525 53 259 0.0 0.0 0.00 0.00 0.00 85 1017.6
20260506100053 53 259 0.0 0.0 0.00 0.00 0.00 85 1017.5
20260506094549 53 259 0.0 0.0 0.00 0.00 0.00 85 1017.4
20260506093046 53 259 0.0 0.0 0.00 0.00 0.00 85 1017.4
20260506091550 53 259 0.0 0.0 0.00 0.00 0.00 85 1017.5
20260506090045 53 259 0.0 0.0 0.00 0.00 0.00 84 1017.5
20260506084545 53 259 0.0 0.0 0.00 0.00 0.00 84 1017.6
20260506083041 54 266 0.0 0.0 0.00 0.00 0.00 84 1017.6
20260506081540 54 263 0.0 0.0 0.00 0.00 0.00 83 1017.5
20260506073036 54 239 0.0 0.0 0.00 0.00 0.00 83 1017.2
20260506071533 54 261 0.0 0.0 0.00 0.00 0.00 82 1017.0
20260506061525 54 266 0.0 0.0 0.00 0.00 0.00 80 1016.6
20260506044517 55 183 0.0 0.0 0.00 0.00 0.00 78 1016.1
20260506043014 55 182 0.0 0.0 0.00 0.00 0.00 78 1015.8
20260506041542 55 185 0.0 0.0 0.00 0.00 0.00 77 1015.6
20260506040043 55 313 0.0 0.0 0.00 0.00 0.00 77 1015.4
20260506034538 55 174 0.0 0.0 0.00 0.00 0.00 77 1015.4
20260506033040 55 169 0.0 0.0 0.00 0.00 0.00 78 1015.2
20260506031535 56 175 0.0 0.0 0.00 0.00 0.00 78 1014.7
20260506030032 56 186 0.0 1.0 0.00 0.00 0.00 77 1014.6
20260506024530 56 172 0.0 0.0 0.00 0.00 0.00 78 1014.5
20260506023031 56 168 0.0 0.0 0.00 0.00 0.00 77 1014.5
20260506021533 57 190 0.0 0.0 0.00 0.00 0.00 76 1014.3
20260506020031 57 181 0.0 0.0 0.00 0.00 0.00 76 1014.2
20260506014525 58 168 0.0 0.0 0.00 0.00 0.00 75 1013.9
20260506013024 59 179 0.0 0.0 0.00 0.00 0.00 74 1013.9
20260506011529 60 192 0.0 0.0 0.00 0.00 0.00 75 1013.7
20260506010041 61 169 0.0 0.0 0.00 0.00 0.00 74 1013.7
20260506004519 61 145 0.0 0.0 0.00 0.00 0.00 74 1013.7
20260506003019 61 140 0.0 0.0 0.00 0.00 0.00 74 1013.6
20260506001518 61 173 0.0 0.0 0.00 0.00 0.00 73 1013.5
20260506000017 61 198 0.0 2.0 0.00 0.00 0.00 73 1013.4
20260505234531 62 165 0.0 8.0 0.00 0.00 0.00 72 1013.5
20260505233013 64 178 0.0 5.0 0.00 0.00 0.00 71 1013.4
20260505231513 63 161 0.0 3.0 0.00 0.00 0.00 71 1013.4
20260505230015 65 147 0.0 2.0 0.00 0.00 0.00 69 1013.5
20260505224510 67 182 0.0 4.0 0.00 0.00 0.00 69 1013.4
20260505223010 70 253 0.0 0.0 0.00 0.00 0.00 65 1013.6
20260505221508 69 171 0.0 0.0 0.00 0.00 0.00 65 1013.7
20260505220004 67 174 0.0 4.0 0.00 0.00 0.00 70 1013.8
20260505214500 65 202 0.0 3.0 0.00 0.00 0.00 72 1013.9
20260505213105 65 270 0.0 1.0 0.00 0.00 0.00 70 1014.1
20260505211558 65 190 0.0 0.0 0.00 0.00 0.00 72 1014.1
20260505210104 65 265 0.0 0.0 0.00 0.00 0.00 72 1014.2
20260505204559 65 225 0.0 0.0 0.00 0.00 0.00 72 1014.2
20260505203056 63 179 0.0 0.0 0.00 0.00 0.00 73 1014.2
20260505201555 63 192 0.0 0.0 0.00 0.00 0.00 75 1014.4
20260505194554 62 255 0.0 0.0 0.00 0.00 0.00 74 1014.3
20260505193050 61 196 0.0 0.0 0.00 0.00 0.00 74 1014.4
20260505191545 61 202 0.0 0.0 0.00 0.00 0.00 74 1014.4
20260505190045 62 186 0.0 0.0 0.00 0.00 0.00 74 1014.4
20260505184541 62 207 0.0 0.0 0.00 0.00 0.00 74 1014.4
20260505183041 60 182 0.0 0.0 0.00 0.00 0.00 75 1014.4
20260505181540 61 180 0.0 0.0 0.00 0.00 0.00 77 1014.4
20260505180056 59 202 0.0 0.0 0.00 0.00 0.00 77 1014.3
20260505174548 58 213 0.0 0.0 0.00 0.00 0.00 80 1014.3
20260505173033 58 222 0.0 0.0 0.00 0.00 0.00 79 1014.2
20260505171526 58 215 0.0 0.0 0.00 0.00 0.00 81 1014.0
20260505170023 57 45 0.0 0.0 0.00 0.00 0.00 84 1014.2
20260505164619 55 232 0.0 0.0 0.00 0.00 0.00 86 1014.2
20260505163049 55 236 0.0 0.0 0.00 0.00 0.00 87 1014.2
20260505161543 54 252 0.0 0.0 0.00 0.00 0.00 88 1014.0
20260505153034 53 243 0.0 0.0 0.00 0.00 0.00 90 1013.7
20260505151533 53 244 0.0 0.0 0.00 0.00 0.00 91 1013.5
20260505124522 51 250 0.0 0.0 0.00 0.00 0.00 91 1012.7